• En España
  • Lista de países
  • Para 7 días
  • Temperatura del agua
  • Mapa Satelital
  • El tiempo en el mapa
  • Informadores
  • user-avatar
    Iniciar sesión

    Tiempo cada hora Wiktoria

    Hoy, 25 Noviembre, Sábado

    Tiempo Temperatura Precipitaciones Viento Presión Humedad
    00:00 +22°C° 0 mm 3 mps 748 mmHg 56%
    01:00 +22°C° 0 mm 3 mps 748 mmHg 55%
    02:00 +21°C° 0 mm 3 mps 748 mmHg 57%
    03:00 +21°C° 0 mm 3 mps 748 mmHg 60%
    04:00 +19°C° 0 mm 2 mps 748 mmHg 70%
    05:00 +20°C° 0 mm 3 mps 748 mmHg 68%
    06:00 +20°C° 0 mm 4 mps 749 mmHg 65%
    07:00 +21°C° 0 mm 5 mps 749 mmHg 63%
    08:00 +23°C° 0 mm 5 mps 749 mmHg 58%
    09:00 +26°C° 0 mm 5 mps 749 mmHg 53%
    10:00 +28°C° 0 mm 4 mps 749 mmHg 46%
    11:00 +30°C° 0 mm 4 mps 748 mmHg 40%
    12:00 +33°C° 0 mm 4 mps 748 mmHg 34%
    13:00 +34°C° 0 mm 4 mps 748 mmHg 29%
    14:00 +33°C° 0 mm 3 mps 748 mmHg 31%
    15:00 +31°C° 0 mm 3 mps 747 mmHg 34%
    16:00 +30°C° 0 mm 2 mps 747 mmHg 36%
    17:00 +29°C° 0 mm 2 mps 747 mmHg 41%
    18:00 +27°C° 0 mm 2 mps 747 mmHg 45%
    19:00 +26°C° 0 mm 1 mps 747 mmHg 49%
    20:00 +25°C° 0,3 mm 2 mps 747 mmHg 55%
    21:00 +23°C° 0,3 mm 2 mps 747 mmHg 61%
    22:00 +21°C° 0,3 mm 2 mps 748 mmHg 67%
    23:00 +20°C° 0,6 mm 2 mps 747 mmHg 71%

    Mañana, 26 Noviembre, Domingo

    Tiempo Temperatura Precipitaciones Viento Presión Humedad
    00:00 +20°C° 0,6 mm 2 mps 747 mmHg 75%
    01:00 +19°C° 0,6 mm 2 mps 747 mmHg 79%
    02:00 +19°C° 0,8 mm 3 mps 747 mmHg 81%
    03:00 +19°C° 0,8 mm 3 mps 747 mmHg 84%
    04:00 +19°C° 0,8 mm 3 mps 747 mmHg 86%
    05:00 +19°C° 0,8 mm 4 mps 747 mmHg 85%
    06:00 +19°C° 0,8 mm 4 mps 747 mmHg 83%
    07:00 +20°C° 0,8 mm 4 mps 747 mmHg 82%
    08:00 +21°C° 1,1 mm 5 mps 747 mmHg 80%
    09:00 +21°C° 1,1 mm 5 mps 747 mmHg 78%
    10:00 +22°C° 1,1 mm 5 mps 747 mmHg 76%
    11:00 +23°C° 0,1 mm 5 mps 747 mmHg 72%
    12:00 +25°C° 0,1 mm 5 mps 747 mmHg 68%
    13:00 +26°C° 0,1 mm 5 mps 746 mmHg 64%
    14:00 +28°C° 0 mm 5 mps 746 mmHg 58%
    15:00 +29°C° 0 mm 5 mps 745 mmHg 53%
    16:00 +30°C° 0 mm 6 mps 744 mmHg 48%
    17:00 +28°C° 0,2 mm 5 mps 745 mmHg 54%
    18:00 +26°C° 0,2 mm 5 mps 745 mmHg 61%
    19:00 +25°C° 0,2 mm 4 mps 745 mmHg 67%
    20:00 +22°C° 1,9 mm 4 mps 746 mmHg 75%
    21:00 +21°C° 1,9 mm 4 mps 746 mmHg 83%
    22:00 +19°C° 1,9 mm 3 mps 747 mmHg 91%
    23:00 +19°C° 0,5 mm 3 mps 747 mmHg 91%

    Pasado mañana, 27 Noviembre, Lunes

    Tiempo Temperatura Precipitaciones Viento Presión Humedad
    00:00 +19°C° 0,5 mm 3 mps 747 mmHg 92%
    01:00 +18°C° 0,5 mm 3 mps 747 mmHg 93%
    02:00 +18°C° 0,2 mm 3 mps 747 mmHg 93%
    03:00 +18°C° 0,2 mm 3 mps 747 mmHg 94%
    04:00 +17°C° 0,2 mm 3 mps 747 mmHg 95%
    05:00 +18°C° 0,2 mm 3 mps 747 mmHg 92%
    06:00 +19°C° 0,2 mm 3 mps 748 mmHg 89%
    07:00 +20°C° 0,2 mm 3 mps 748 mmHg 86%
    08:00 +22°C° 0 mm 3 mps 748 mmHg 78%
    09:00 +25°C° 0 mm 3 mps 748 mmHg 69%
    10:00 +27°C° 0 mm 2 mps 748 mmHg 61%
    11:00 +27°C° 0 mm 3 mps 748 mmHg 60%
    12:00 +28°C° 0 mm 3 mps 748 mmHg 58%
    13:00 +28°C° 0 mm 4 mps 747 mmHg 57%
    14:00 +28°C° 0 mm 4 mps 747 mmHg 56%
    15:00 +29°C° 0 mm 4 mps 747 mmHg 55%
    16:00 +29°C° 0 mm 5 mps 746 mmHg 54%
    17:00 +27°C° 0 mm 5 mps 747 mmHg 58%
    18:00 +25°C° 0 mm 5 mps 747 mmHg 62%
    19:00 +23°C° 0 mm 5 mps 748 mmHg 67%
    20:00 +21°C° 0 mm 5 mps 748 mmHg 70%
    21:00 +20°C° 0 mm 5 mps 749 mmHg 73%
    22:00 +19°C° 0 mm 4 mps 749 mmHg 76%
    23:00 +18°C° 0 mm 4 mps 749 mmHg 78%

    28 Noviembre, Martes

    Tiempo Temperatura Precipitaciones Viento Presión Humedad
    00:00 +17°C° 0 mm 4 mps 749 mmHg 80%
    01:00 +17°C° 0 mm 3 mps 749 mmHg 83%
    02:00 +16°C° 0 mm 3 mps 749 mmHg 84%
    03:00 +16°C° 0 mm 3 mps 749 mmHg 86%
    04:00 +16°C° 0 mm 3 mps 749 mmHg 88%
    05:00 +17°C° 0 mm 2 mps 749 mmHg 84%
    06:00 +19°C° 0 mm 2 mps 749 mmHg 80%
    07:00 +20°C° 0 mm 2 mps 750 mmHg 76%
    08:00 +24°C° 0 mm 2 mps 750 mmHg 68%
    09:00 +26°C° 0 mm 2 mps 750 mmHg 60%
    10:00 +28°C° 0 mm 2 mps 750 mmHg 52%
    11:00 +30°C° 0 mm 2 mps 749 mmHg 46%
    12:00 +32°C° 0 mm 1 mps 749 mmHg 39%
    13:00 +33°C° 0 mm 1 mps 748 mmHg 33%
    14:00 +33°C° 0 mm 1 mps 748 mmHg 31%
    15:00 +34°C° 0 mm 1 mps 748 mmHg 29%
    16:00 +34°C° 0 mm 1 mps 747 mmHg 27%
    17:00 +32°C° 0 mm 1 mps 748 mmHg 32%
    18:00 +30°C° 0 mm 1 mps 748 mmHg 37%
    19:00 +28°C° 0 mm 1 mps 748 mmHg 42%
    20:00 +27°C° 0 mm 1 mps 749 mmHg 46%
    21:00 +25°C° 0 mm 2 mps 749 mmHg 49%
    22:00 +24°C° 0 mm 2 mps 749 mmHg 53%
    23:00 +23°C° 0 mm 2 mps 749 mmHg 57%

    29 Noviembre, Miércoles

    Tiempo Temperatura Precipitaciones Viento Presión Humedad
    00:00 +23°C° 0 mm 2 mps 749 mmHg 61%
    01:00 +21°C° 0 mm 2 mps 749 mmHg 65%
    02:00 +21°C° 0 mm 2 mps 749 mmHg 68%
    03:00 +20°C° 0 mm 3 mps 749 mmHg 71%
    04:00 +20°C° 0 mm 3 mps 749 mmHg 74%
    05:00 +21°C° 0 mm 3 mps 749 mmHg 72%
    06:00 +23°C° 0 mm 4 mps 749 mmHg 71%
    07:00 +25°C° 0 mm 4 mps 750 mmHg 69%
    08:00 +27°C° 0 mm 4 mps 750 mmHg 62%
    09:00 +30°C° 0 mm 4 mps 749 mmHg 56%
    10:00 +33°C° 0 mm 4 mps 749 mmHg 49%
    11:00 +34°C° 0 mm 4 mps 749 mmHg 43%
    12:00 +36°C° 0 mm 3 mps 748 mmHg 37%
    13:00 +37°C° 0 mm 3 mps 748 mmHg 30%
    14:00 +37°C° 0 mm 2 mps 747 mmHg 30%
    15:00 +37°C° 0 mm 2 mps 747 mmHg 30%
    16:00 +37°C° 0 mm 2 mps 746 mmHg 30%
    17:00 +35°C° 0 mm 2 mps 746 mmHg 35%
    18:00 +32°C° 0 mm 2 mps 746 mmHg 40%
    19:00 +31°C° 0 mm 3 mps 746 mmHg 45%
    20:00 +30°C° 0 mm 2 mps 747 mmHg 47%
    21:00 +29°C° 0 mm 2 mps 747 mmHg 48%
    22:00 +28°C° 0 mm 2 mps 747 mmHg 50%
    23:00 +27°C° 0,6 mm 2 mps 747 mmHg 54%

    30 Noviembre, Jueves

    Tiempo Temperatura Precipitaciones Viento Presión Humedad
    00:00 +26°C° 0,6 mm 2 mps 747 mmHg 59%
    01:00 +25°C° 0,6 mm 2 mps 747 mmHg 63%
    02:00 +25°C° 0,6 mm 3 mps 747 mmHg 67%
    03:00 +24°C° 0,6 mm 3 mps 746 mmHg 71%
    04:00 +22°C° 0,6 mm 3 mps 746 mmHg 74%
    05:00 +24°C° 0,6 mm 3 mps 747 mmHg 73%
    06:00 +25°C° 0,6 mm 4 mps 747 mmHg 72%
    07:00 +25°C° 0,6 mm 4 mps 747 mmHg 71%
    08:00 +27°C° 0,4 mm 4 mps 747 mmHg 66%
    09:00 +29°C° 0,4 mm 4 mps 747 mmHg 61%
    10:00 +30°C° 0,4 mm 3 mps 747 mmHg 56%
    11:00 +31°C° 0 mm 3 mps 746 mmHg 51%
    12:00 +33°C° 0 mm 3 mps 746 mmHg 46%
    13:00 +35°C° 0 mm 3 mps 745 mmHg 42%
    14:00 +34°C° 0,1 mm 3 mps 744 mmHg 42%
    15:00 +34°C° 0,1 mm 3 mps 744 mmHg 42%
    16:00 +34°C° 0,1 mm 2 mps 743 mmHg 43%
    17:00 +31°C° 1,1 mm 3 mps 744 mmHg 51%
    18:00 +30°C° 1,1 mm 4 mps 744 mmHg 58%
    19:00 +28°C° 1,1 mm 4 mps 744 mmHg 66%
    20:00 +26°C° 4,6 mm 4 mps 745 mmHg 74%
    21:00 +25°C° 4,6 mm 3 mps 745 mmHg 81%
    22:00 +23°C° 4,6 mm 2 mps 746 mmHg 88%
    23:00 +23°C° 0,1 mm 2 mps 745 mmHg 90%
    Mostrar más